Location: *
(48.8489°N, 2.3218°E)
Time: 19:25:19
(UTC+00:00)

SJ-6B - Pass Details

Date: 23 August 2019
Orbit: 509 x 583 km, 97.6° (Epoch: 19 October)

Event Time Altitude Azimuth Distance (km) Brightness Sun altitude
Rises 19:17:44 0° 162° (SSE) 2,713 6.0 -4.8°
Reaches altitude 10° 19:19:50 10° 162° (SSE) 1,836 5.1 -5.1°
Maximum altitude 19:23:49 82° 75° (ENE) 578 2.9 -5.7°
Drops below altitude 10° 19:27:55 10° 348° (NNW) 1,891 6.1 -6.4°
Sets 19:30:06 0° 348° (NNW) 2,802 7.0 -6.7°
